| time (UTC) | temp F | wind direction | speed MPH | gust MPH | rain 1hr in | rain 24hr in | rain mn in | humidity % | barometer mb |
| 20260510023004 | 83 | 230 | 5.0 | 9.0 | 0.00 | 0.00 | 0.00 | 20 | 1019.0 |
| 20260510022503 | 84 | 229 | 5.0 | 9.0 | 0.00 | 0.00 | 0.00 | 19 | 1018.9 |
| 20260510022004 | 85 | 221 | 5.0 | 9.0 | 0.00 | 0.00 | 0.00 | 18 | 1019.0 |
| 20260510021503 | 85 | 230 | 6.0 | 10.0 | 0.00 | 0.00 | 0.00 | 18 | 1018.9 |
| 20260510021003 | 86 | 224 | 6.0 | 10.0 | 0.00 | 0.00 | 0.00 | 17 | 1018.7 |
| 20260510020504 | 86 | 216 | 7.0 | 12.0 | 0.00 | 0.00 | 0.00 | 17 | 1018.7 |
| 20260510020005 | 86 | 214 | 7.0 | 12.0 | 0.00 | 0.00 | 0.00 | 16 | 1018.8 |
| 20260510015503 | 87 | 203 | 8.0 | 12.0 | 0.00 | 0.00 | 0.00 | 16 | 1018.7 |
| 20260510015004 | 87 | 208 | 7.0 | 12.0 | 0.00 | 0.00 | 0.00 | 16 | 1018.8 |
| 20260510014503 | 88 | 223 | 9.0 | 13.0 | 0.00 | 0.00 | 0.00 | 14 | 1018.7 |
| 20260510014004 | 88 | 226 | 8.0 | 14.0 | 0.00 | 0.00 | 0.00 | 13 | 1018.8 |
| 20260510013503 | 89 | 216 | 9.0 | 14.0 | 0.00 | 0.00 | 0.00 | 12 | 1018.7 |
| 20260510013004 | 89 | 217 | 7.0 | 13.0 | 0.00 | 0.00 | 0.00 | 12 | 1018.6 |
| 20260510012504 | 89 | 214 | 7.0 | 13.0 | 0.00 | 0.00 | 0.00 | 12 | 1018.6 |
| 20260510012004 | 89 | 209 | 8.0 | 14.0 | 0.00 | 0.00 | 0.00 | 13 | 1018.8 |
| 20260510011503 | 90 | 208 | 8.0 | 12.0 | 0.00 | 0.00 | 0.00 | 13 | 1018.8 |
| 20260510010504 | 90 | 221 | 9.0 | 14.0 | 0.00 | 0.00 | 0.00 | 13 | 1018.8 |
| 20260510010004 | 90 | 203 | 10.0 | 14.0 | 0.00 | 0.00 | 0.00 | 13 | 1018.7 |
| 20260510005503 | 91 | 202 | 8.0 | 14.0 | 0.00 | 0.00 | 0.00 | 12 | 1018.7 |
| 20260510005003 | 91 | 198 | 8.0 | 14.0 | 0.00 | 0.00 | 0.00 | 11 | 1018.8 |
| 20260510004503 | 91 | 209 | 8.0 | 14.0 | 0.00 | 0.00 | 0.00 | 11 | 1018.7 |
| 20260510004003 | 91 | 196 | 8.0 | 16.0 | 0.00 | 0.00 | 0.00 | 11 | 1018.8 |
| 20260510003504 | 92 | 190 | 7.0 | 13.0 | 0.00 | 0.00 | 0.00 | 11 | 1018.8 |
| 20260510003004 | 92 | 214 | 8.0 | 12.0 | 0.00 | 0.00 | 0.00 | 11 | 1018.8 |
| 20260510002003 | 92 | 189 | 9.0 | 18.0 | 0.00 | 0.00 | 0.00 | 11 | 1018.8 |
| 20260510001504 | 92 | 191 | 9.0 | 15.0 | 0.00 | 0.00 | 0.00 | 11 | 1018.8 |
| 20260510000503 | 92 | 199 | 10.0 | 16.0 | 0.00 | 0.00 | 0.00 | 11 | 1018.8 |
| 20260510000003 | 93 | 187 | 6.0 | 12.0 | 0.00 | 0.00 | 0.00 | 10 | 1018.8 |
| 20260509235504 | 92 | 170 | 7.0 | 12.0 | 0.00 | 0.00 | 0.00 | 10 | 1018.8 |
| 20260509235004 | 92 | 183 | 10.0 | 14.0 | 0.00 | 0.00 | 0.00 | 10 | 1018.8 |
| 20260509234503 | 93 | 170 | 9.0 | 13.0 | 0.00 | 0.00 | 0.00 | 10 | 1018.9 |
| 20260509234003 | 92 | 177 | 10.0 | 18.0 | 0.00 | 0.00 | 0.00 | 9 | 1018.9 |
| 20260509233504 | 92 | 203 | 11.0 | 16.0 | 0.00 | 0.00 | 0.00 | 10 | 1019.0 |
| 20260509233004 | 93 | 210 | 10.0 | 16.0 | 0.00 | 0.00 | 0.00 | 10 | 1018.9 |
| 20260509232503 | 93 | 199 | 9.0 | 20.0 | 0.00 | 0.00 | 0.00 | 9 | 1019.0 |
| 20260509232004 | 93 | 172 | 9.0 | 16.0 | 0.00 | 0.00 | 0.00 | 9 | 1019.1 |
| 20260509231503 | 93 | 234 | 8.0 | 17.0 | 0.00 | 0.00 | 0.00 | 9 | 1019.2 |
| 20260509231004 | 93 | 156 | 7.0 | 12.0 | 0.00 | 0.00 | 0.00 | 9 | 1019.2 |
| 20260509230503 | 93 | 187 | 8.0 | 20.0 | 0.00 | 0.00 | 0.00 | 9 | 1019.2 |
| 20260509230003 | 93 | 165 | 13.0 | 17.0 | 0.00 | 0.00 | 0.00 | 8 | 1019.3 |
| 20260509225004 | 93 | 185 | 9.0 | 14.0 | 0.00 | 0.00 | 0.00 | 9 | 1019.3 |
| 20260509224503 | 93 | 165 | 7.0 | 12.0 | 0.00 | 0.00 | 0.00 | 8 | 1019.5 |
| 20260509224004 | 93 | 190 | 7.0 | 12.0 | 0.00 | 0.00 | 0.00 | 8 | 1019.5 |
| 20260509223503 | 93 | 180 | 8.0 | 13.0 | 0.00 | 0.00 | 0.00 | 7 | 1019.6 |
| 20260509223004 | 93 | 180 | 9.0 | 17.0 | 0.00 | 0.00 | 0.00 | 7 | 1019.6 |
| 20260509222503 | 93 | 157 | 7.0 | 12.0 | 0.00 | 0.00 | 0.00 | 7 | 1019.8 |
| 20260509222003 | 93 | 175 | 9.0 | 12.0 | 0.00 | 0.00 | 0.00 | 8 | 1019.8 |
| 20260509221504 | 94 | 189 | 10.0 | 16.0 | 0.00 | 0.00 | 0.00 | 7 | 1019.8 |
| 20260509220504 | 94 | 188 | 7.0 | 20.0 | 0.00 | 0.00 | 0.00 | 7 | 1019.7 |
| 20260509220003 | 93 | 234 | 9.0 | 16.0 | 0.00 | 0.00 | 0.00 | 7 | 1019.9 |
| 20260509215504 | 94 | 210 | 7.0 | 12.0 | 0.00 | 0.00 | 0.00 | 7 | 1019.9 |
| 20260509215005 | 94 | 166 | 9.0 | 16.0 | 0.00 | 0.00 | 0.00 | 7 | 1019.9 |
| 20260509214503 | 93 | 239 | 11.0 | 15.0 | 0.00 | 0.00 | 0.00 | 7 | 1019.9 |
| 20260509214003 | 93 | 236 | 7.0 | 12.0 | 0.00 | 0.00 | 0.00 | 7 | 1020.0 |
| 20260509213003 | 93 | 202 | 4.0 | 9.0 | 0.00 | 0.00 | 0.00 | 8 | 1020.3 |
| 20260509212504 | 93 | 178 | 6.0 | 10.0 | 0.00 | 0.00 | 0.00 | 9 | 1020.4 |
| 20260509212003 | 93 | 213 | 10.0 | 20.0 | 0.00 | 0.00 | 0.00 | 9 | 1020.3 |
| 20260509211504 | 93 | 199 | 7.0 | 13.0 | 0.00 | 0.00 | 0.00 | 9 | 1020.3 |
| 20260509211004 | 93 | 176 | 5.0 | 14.0 | 0.00 | 0.00 | 0.00 | 9 | 1020.4 |
| 20260509210503 | 93 | 188 | 3.0 | 12.0 | 0.00 | 0.00 | 0.00 | 9 | 1020.5 |
| 20260509210003 | 93 | 150 | 6.0 | 12.0 | 0.00 | 0.00 | 0.00 | 9 | 1020.6 |
| 20260509205503 | 93 | 197 | 8.0 | 12.0 | 0.00 | 0.00 | 0.00 | 9 | 1020.6 |
| 20260509205003 | 93 | 127 | 2.0 | 7.0 | 0.00 | 0.00 | 0.00 | 10 | 1020.6 |
| 20260509204504 | 93 | 133 | 5.0 | 9.0 | 0.00 | 0.00 | 0.00 | 9 | 1020.6 |
| 20260509204004 | 93 | 67 | 3.0 | 7.0 | 0.00 | 0.00 | 0.00 | 10 | 1020.7 |
| 20260509203503 | 93 | 78 | 2.0 | 6.0 | 0.00 | 0.00 | 0.00 | 10 | 1020.8 |
| 20260509203003 | 93 | 112 | 4.0 | 8.0 | 0.00 | 0.00 | 0.00 | 10 | 1020.7 |
| 20260509202504 | 92 | 344 | 4.0 | 9.0 | 0.00 | 0.00 | 0.00 | 10 | 1020.7 |
| 20260509202004 | 92 | 320 | 5.0 | 8.0 | 0.00 | 0.00 | 0.00 | 10 | 1020.8 |
| 20260509201003 | 92 | 101 | 1.0 | 3.0 | 0.00 | 0.00 | 0.00 | 10 | 1020.9 |
| 20260509200003 | 91 | 14 | 1.0 | 3.0 | 0.00 | 0.00 | 0.00 | 11 | 1021.0 |
| 20260509195503 | 90 | 340 | 3.0 | 8.0 | 0.00 | 0.00 | 0.00 | 11 | 1021.0 |
| 20260509195004 | 90 | 71 | 4.0 | 7.0 | 0.00 | 0.00 | 0.00 | 11 | 1021.1 |
| 20260509194504 | 89 | 0 | 2.0 | 3.0 | 0.00 | 0.00 | 0.00 | 11 | 1021.2 |
| 20260509194003 | 89 | 13 | 3.0 | 8.0 | 0.00 | 0.00 | 0.00 | 11 | 1021.3 |
| 20260509193503 | 89 | 83 | 3.0 | 7.0 | 0.00 | 0.00 | 0.00 | 11 | 1021.4 |
| 20260509193003 | 88 | 335 | 4.0 | 9.0 | 0.00 | 0.00 | 0.00 | 11 | 1021.4 |
| 20260509191004 | 89 | 43 | 3.0 | 8.0 | 0.00 | 0.00 | 0.00 | 12 | 1021.7 |
| 20260509190003 | 89 | 77 | 2.0 | 8.0 | 0.00 | 0.00 | 0.00 | 12 | 1021.8 |
| 20260509185503 | 89 | 31 | 4.0 | 10.0 | 0.00 | 0.00 | 0.00 | 12 | 1021.8 |
| 20260509185004 | 88 | 9 | 6.0 | 12.0 | 0.00 | 0.00 | 0.00 | 12 | 1021.7 |
| 20260509184003 | 88 | 355 | 6.0 | 12.0 | 0.00 | 0.00 | 0.00 | 12 | 1021.8 |
| 20260509183503 | 88 | 44 | 2.0 | 8.0 | 0.00 | 0.00 | 0.00 | 13 | 1021.8 |
| 20260509183004 | 87 | 55 | 5.0 | 10.0 | 0.00 | 0.00 | 0.00 | 13 | 1021.8 |
| 20260509182504 | 87 | 25 | 5.0 | 12.0 | 0.00 | 0.00 | 0.00 | 12 | 1021.8 |
| 20260509182003 | 87 | 23 | 5.0 | 10.0 | 0.00 | 0.00 | 0.00 | 13 | 1021.8 |
| 20260509181503 | 87 | 28 | 3.0 | 7.0 | 0.00 | 0.00 | 0.00 | 12 | 1021.8 |
| 20260509181003 | 87 | 16 | 4.0 | 8.0 | 0.00 | 0.00 | 0.00 | 13 | 1021.8 |
| 20260509180504 | 87 | 21 | 4.0 | 10.0 | 0.00 | 0.00 | 0.00 | 13 | 1021.8 |
| 20260509180003 | 87 | 74 | 3.0 | 12.0 | 0.00 | 0.00 | 0.00 | 13 | 1021.8 |
| 20260509175004 | 87 | 343 | 5.0 | 8.0 | 0.00 | 0.00 | 0.00 | 13 | 1021.7 |
| 20260509174503 | 87 | 26 | 1.0 | 12.0 | 0.00 | 0.00 | 0.00 | 13 | 1021.7 |
| 20260509173503 | 86 | 46 | 3.0 | 9.0 | 0.00 | 0.00 | 0.00 | 13 | 1021.8 |
| 20260509173003 | 85 | 332 | 4.0 | 8.0 | 0.00 | 0.00 | 0.00 | 13 | 1021.8 |
| 20260509172003 | 86 | 36 | 6.0 | 10.0 | 0.00 | 0.00 | 0.00 | 13 | 1021.9 |
| 20260509171503 | 85 | 37 | 3.0 | 10.0 | 0.00 | 0.00 | 0.00 | 13 | 1021.9 |
| 20260509171003 | 85 | 50 | 4.0 | 10.0 | 0.00 | 0.00 | 0.00 | 13 | 1021.8 |
| 20260509170504 | 86 | 42 | 5.0 | 10.0 | 0.00 | 0.00 | 0.00 | 13 | 1021.7 |
| 20260509170003 | 85 | 28 | 4.0 | 9.0 | 0.00 | 0.00 | 0.00 | 13 | 1021.7 |
| 20260509165504 | 85 | 49 | 2.0 | 5.0 | 0.00 | 0.00 | 0.00 | 13 | 1021.5 |
| 20260509165004 | 85 | 330 | 3.0 | 5.0 | 0.00 | 0.00 | 0.00 | 13 | 1021.5 |
| 20260509164503 | 84 | 251 | 1.0 | 3.0 | 0.00 | 0.00 | 0.00 | 13 | 1021.5 |
| 20260509164003 | 84 | 196 | 1.0 | 6.0 | 0.00 | 0.00 | 0.00 | 13 | 1021.5 |
| 20260509163003 | 84 | 142 | 2.0 | 6.0 | 0.00 | 0.00 | 0.00 | 13 | 1021.4 |
| 20260509162503 | 83 | 95 | 0.0 | 3.0 | 0.00 | 0.00 | 0.00 | 14 | 1021.4 |
| 20260509162004 | 82 | 247 | 0.0 | 2.0 | 0.00 | 0.00 | 0.00 | 14 | 1021.3 |
| 20260509161504 | 82 | 190 | 1.0 | 7.0 | 0.00 | 0.00 | 0.00 | 14 | 1021.4 |
| 20260509161004 | 82 | 155 | 1.0 | 9.0 | 0.00 | 0.00 | 0.00 | 14 | 1021.3 |
| 20260509160004 | 82 | 161 | 2.0 | 9.0 | 0.00 | 0.00 | 0.00 | 14 | 1021.3 |
| 20260509155504 | 81 | 146 | 3.0 | 6.0 | 0.00 | 0.00 | 0.00 | 14 | 1021.4 |
| 20260509155003 | 81 | 132 | 1.0 | 5.0 | 0.00 | 0.00 | 0.00 | 15 | 1021.5 |
| 20260509154503 | 80 | 144 | 2.0 | 5.0 | 0.00 | 0.00 | 0.00 | 15 | 1021.4 |
| 20260509153504 | 80 | 141 | 3.0 | 7.0 | 0.00 | 0.00 | 0.00 | 15 | 1021.4 |
| 20260509153004 | 80 | 120 | 3.0 | 7.0 | 0.00 | 0.00 | 0.00 | 15 | 1021.5 |
| 20260509152003 | 80 | 113 | 2.0 | 6.0 | 0.00 | 0.00 | 0.00 | 15 | 1021.4 |
| 20260509150503 | 79 | 147 | 1.0 | 3.0 | 0.00 | 0.00 | 0.00 | 15 | 1021.2 |
| 20260509150004 | 78 | 171 | 1.0 | 3.0 | 0.00 | 0.00 | 0.00 | 15 | 1021.1 |
| 20260509145504 | 78 | 197 | 1.0 | 3.0 | 0.00 | 0.00 | 0.00 | 15 | 1021.2 |
| 20260509144503 | 76 | 231 | 0.0 | 2.0 | 0.00 | 0.00 | 0.00 | 16 | 1021.3 |
| 20260509144004 | 75 | 243 | 0.0 | 1.0 | 0.00 | 0.00 | 0.00 | 17 | 1021.3 |
| 20260509143503 | 74 | 243 | 0.0 | 0.0 | 0.00 | 0.00 | 0.00 | 17 | 1021.2 |
| 20260509143004 | 74 | 243 | 0.0 | 1.0 | 0.00 | 0.00 | 0.00 | 17 | 1021.2 |
| 20260509142504 | 73 | 243 | 0.0 | 1.0 | 0.00 | 0.00 | 0.00 | 17 | 1021.3 |
| 20260509142003 | 72 | 243 | 0.0 | 0.0 | 0.00 | 0.00 | 0.00 | 17 | 1021.2 |
| 20260509141504 | 72 | 243 | 0.0 | 0.0 | 0.00 | 0.00 | 0.00 | 18 | 1021.2 |
| 20260509135503 | 69 | 243 | 1.0 | 3.0 | 0.00 | 0.00 | 0.00 | 21 | 1021.0 |
| 20260509135004 | 68 | 242 | 1.0 | 3.0 | 0.00 | 0.00 | 0.00 | 21 | 1020.9 |
| 20260509134503 | 67 | 242 | 1.0 | 3.0 | 0.00 | 0.00 | 0.00 | 21 | 1020.8 |
| 20260509134003 | 67 | 241 | 0.0 | 2.0 | 0.00 | 0.00 | 0.00 | 22 | 1020.9 |
| 20260509133504 | 66 | 240 | 2.0 | 5.0 | 0.00 | 0.00 | 0.00 | 22 | 1020.6 |
| 20260509133003 | 64 | 261 | 2.0 | 3.0 | 0.00 | 0.00 | 0.00 | 23 | 1020.6 |
| 20260509132504 | 64 | 236 | 0.0 | 2.0 | 0.00 | 0.00 | 0.00 | 24 | 1020.6 |
| 20260509132003 | 63 | 235 | 0.0 | 2.0 | 0.00 | 0.00 | 0.00 | 24 | 1020.6 |
| 20260509131503 | 63 | 235 | 0.0 | 1.0 | 0.00 | 0.00 | 0.00 | 24 | 1020.4 |
| 20260509130503 | 63 | 235 | 0.0 | 2.0 | 0.00 | 0.00 | 0.00 | 24 | 1020.4 |
| 20260509130003 | 62 | 235 | 1.0 | 3.0 | 0.00 | 0.00 | 0.00 | 24 | 1020.3 |
| 20260509125503 | 62 | 238 | 1.0 | 2.0 | 0.00 | 0.00 | 0.00 | 25 | 1020.3 |
| 20260509125004 | 62 | 236 | 1.0 | 2.0 | 0.00 | 0.00 | 0.00 | 25 | 1020.2 |
| 20260509124503 | 62 | 236 | 0.0 | 1.0 | 0.00 | 0.00 | 0.00 | 25 | 1020.2 |
| 20260509124004 | 62 | 236 | 0.0 | 1.0 | 0.00 | 0.00 | 0.00 | 25 | 1020.1 |
| 20260509123503 | 61 | 236 | 0.0 | 1.0 | 0.00 | 0.00 | 0.00 | 25 | 1020.1 |
| 20260509123005 | 61 | 236 | 0.0 | 1.0 | 0.00 | 0.00 | 0.00 | 25 | 1019.9 |
| 20260509122504 | 62 | 236 | 0.0 | 0.0 | 0.00 | 0.00 | 0.00 | 25 | 1020.1 |
| 20260509121503 | 62 | 236 | 0.0 | 1.0 | 0.00 | 0.00 | 0.00 | 25 | 1020.1 |
| 20260509121004 | 62 | 236 | 0.0 | 2.0 | 0.00 | 0.00 | 0.00 | 25 | 1020.2 |
| 20260509120503 | 61 | 236 | 0.0 | 2.0 | 0.00 | 0.00 | 0.00 | 25 | 1020.1 |
| 20260509120004 | 61 | 236 | 0.0 | 2.0 | 0.00 | 0.00 | 0.00 | 25 | 1020.1 |
| 20260509115504 | 61 | 236 | 0.0 | 0.0 | 0.00 | 0.00 | 0.00 | 25 | 1020.1 |
| 20260509114503 | 62 | 236 | 0.0 | 2.0 | 0.00 | 0.00 | 0.00 | 25 | 1020.1 |
| 20260509114004 | 62 | 236 | 1.0 | 2.0 | 0.00 | 0.00 | 0.00 | 25 | 1020.1 |
| 20260509113505 | 63 | 235 | 0.0 | 0.0 | 0.00 | 0.00 | 0.00 | 24 | 1020.1 |
| 20260509112504 | 63 | 234 | 1.0 | 2.0 | 0.00 | 0.00 | 0.00 | 24 | 1020.1 |
| 20260509112003 | 64 | 234 | 0.0 | 2.0 | 0.00 | 0.00 | 0.00 | 23 | 1020.2 |
| 20260509111504 | 64 | 234 | 0.0 | 1.0 | 0.00 | 0.00 | 0.00 | 23 | 1020.1 |
| 20260509111003 | 65 | 234 | 0.0 | 2.0 | 0.00 | 0.00 | 0.00 | 23 | 1020.1 |
| 20260509110504 | 65 | 235 | 1.0 | 3.0 | 0.00 | 0.00 | 0.00 | 23 | 1020.2 |
| 20260509110003 | 66 | 244 | 3.0 | 7.0 | 0.00 | 0.00 | 0.00 | 22 | 1020.2 |
| 20260509105503 | 66 | 246 | 4.0 | 8.0 | 0.00 | 0.00 | 0.00 | 22 | 1020.2 |
| 20260509105004 | 65 | 263 | 3.0 | 6.0 | 0.00 | 0.00 | 0.00 | 23 | 1020.1 |
| 20260509104504 | 66 | 255 | 3.0 | 5.0 | 0.00 | 0.00 | 0.00 | 23 | 1020.1 |
| 20260509104003 | 65 | 238 | 2.0 | 5.0 | 0.00 | 0.00 | 0.00 | 23 | 1020.1 |
| 20260509103004 | 63 | 242 | 0.0 | 0.0 | 0.00 | 0.00 | 0.00 | 25 | 1020.2 |
| 20260509102004 | 61 | 244 | 0.0 | 0.0 | 0.00 | 0.00 | 0.00 | 25 | 1020.3 |
| 20260509101504 | 61 | 245 | 0.0 | 0.0 | 0.00 | 0.00 | 0.00 | 25 | 1020.3 |
| 20260509101004 | 61 | 245 | 0.0 | 0.0 | 0.00 | 0.00 | 0.00 | 25 | 1020.3 |
| 20260509100003 | 61 | 245 | 0.0 | 0.0 | 0.00 | 0.00 | 0.00 | 24 | 1020.3 |
| 20260509095004 | 61 | 245 | 0.0 | 0.0 | 0.00 | 0.00 | 0.00 | 25 | 1020.4 |
| 20260509094004 | 61 | 245 | 0.0 | 0.0 | 0.00 | 0.00 | 0.00 | 24 | 1020.4 |
| 20260509093504 | 61 | 245 | 0.0 | 0.0 | 0.00 | 0.00 | 0.00 | 24 | 1020.4 |
| 20260509092503 | 63 | 245 | 0.0 | 0.0 | 0.00 | 0.00 | 0.00 | 23 | 1020.5 |
| 20260509092004 | 63 | 245 | 0.0 | 0.0 | 0.00 | 0.00 | 0.00 | 23 | 1020.5 |
| 20260509091503 | 64 | 245 | 0.0 | 1.0 | 0.00 | 0.00 | 0.00 | 23 | 1020.5 |
| 20260509091003 | 65 | 245 | 0.0 | 0.0 | 0.00 | 0.00 | 0.00 | 22 | 1020.6 |
| 20260509090503 | 65 | 245 | 0.0 | 1.0 | 0.00 | 0.00 | 0.00 | 22 | 1020.5 |
| 20260509085504 | 66 | 245 | 0.0 | 2.0 | 0.00 | 0.00 | 0.00 | 22 | 1020.6 |
| 20260509085004 | 66 | 248 | 0.0 | 2.0 | 0.00 | 0.00 | 0.00 | 22 | 1020.7 |
| 20260509084503 | 67 | 248 | 0.0 | 3.0 | 0.00 | 0.00 | 0.00 | 21 | 1020.6 |
| 20260509084004 | 67 | 263 | 0.0 | 3.0 | 0.00 | 0.00 | 0.00 | 21 | 1020.7 |
| 20260509083504 | 67 | 249 | 0.0 | 2.0 | 0.00 | 0.00 | 0.00 | 21 | 1020.6 |
| 20260509083003 | 67 | 246 | 0.0 | 1.0 | 0.00 | 0.00 | 0.00 | 21 | 1020.6 |
| 20260509082504 | 68 | 248 | 0.0 | 1.0 | 0.00 | 0.00 | 0.00 | 20 | 1020.9 |
| 20260509082004 | 68 | 239 | 0.0 | 0.0 | 0.00 | 0.00 | 0.00 | 20 | 1020.9 |
| 20260509081504 | 68 | 236 | 0.0 | 0.0 | 0.00 | 0.00 | 0.00 | 20 | 1020.9 |
| 20260509081005 | 68 | 240 | 0.0 | 1.0 | 0.00 | 0.00 | 0.00 | 20 | 1021.0 |
| 20260509075503 | 67 | 227 | 0.0 | 0.0 | 0.00 | 0.00 | 0.00 | 21 | 1020.9 |
| 20260509075004 | 67 | 227 | 0.0 | 2.0 | 0.00 | 0.00 | 0.00 | 21 | 1020.9 |
| 20260509074504 | 67 | 227 | 0.0 | 0.0 | 0.00 | 0.00 | 0.00 | 20 | 1021.1 |
| 20260509074004 | 68 | 227 | 0.0 | 0.0 | 0.00 | 0.00 | 0.00 | 20 | 1021.0 |
| 20260509073505 | 68 | 227 | 0.0 | 0.0 | 0.00 | 0.00 | 0.00 | 21 | 1021.0 |
| 20260509073004 | 68 | 227 | 0.0 | 0.0 | 0.00 | 0.00 | 0.00 | 21 | 1021.0 |
| 20260509072504 | 68 | 232 | 0.0 | 0.0 | 0.00 | 0.00 | 0.00 | 21 | 1021.0 |
| 20260509072003 | 68 | 229 | 0.0 | 0.0 | 0.00 | 0.00 | 0.00 | 21 | 1021.1 |
| 20260509071504 | 68 | 228 | 0.0 | 0.0 | 0.00 | 0.00 | 0.00 | 21 | 1021.1 |
| 20260509071003 | 67 | 229 | 0.0 | 0.0 | 0.00 | 0.00 | 0.00 | 21 | 1021.1 |
| 20260509070504 | 68 | 229 | 0.0 | 0.0 | 0.00 | 0.00 | 0.00 | 21 | 1021.2 |
| 20260509070004 | 67 | 229 | 0.0 | 0.0 | 0.00 | 0.00 | 0.00 | 22 | 1021.2 |
| 20260509065504 | 67 | 229 | 0.0 | 0.0 | 0.00 | 0.00 | 0.00 | 22 | 1021.2 |
| 20260509065004 | 67 | 229 | 0.0 | 0.0 | 0.00 | 0.00 | 0.00 | 23 | 1021.2 |
| 20260509064503 | 66 | 228 | 0.0 | 0.0 | 0.00 | 0.00 | 0.00 | 23 | 1021.3 |
| 20260509064003 | 67 | 229 | 0.0 | 0.0 | 0.00 | 0.00 | 0.00 | 23 | 1021.3 |
| 20260509062504 | 67 | 225 | 0.0 | 0.0 | 0.00 | 0.00 | 0.00 | 24 | 1021.2 |
| 20260509062004 | 66 | 223 | 0.0 | 0.0 | 0.00 | 0.00 | 0.00 | 24 | 1021.2 |
| 20260509061503 | 66 | 201 | 0.0 | 0.0 | 0.00 | 0.00 | 0.00 | 24 | 1021.1 |
| 20260509060503 | 66 | 198 | 0.0 | 0.0 | 0.00 | 0.00 | 0.00 | 25 | 1021.2 |
| 20260509060005 | 66 | 200 | 0.0 | 0.0 | 0.00 | 0.00 | 0.00 | 24 | 1021.1 |
| 20260509055504 | 66 | 259 | 0.0 | 0.0 | 0.00 | 0.00 | 0.00 | 24 | 1021.2 |
| 20260509055005 | 66 | 259 | 0.0 | 0.0 | 0.00 | 0.00 | 0.00 | 24 | 1021.2 |
| 20260509054503 | 67 | 259 | 0.0 | 0.0 | 0.00 | 0.00 | 0.00 | 24 | 1021.2 |
| 20260509054004 | 67 | 260 | 0.0 | 0.0 | 0.00 | 0.00 | 0.00 | 24 | 1021.2 |
| 20260509053504 | 68 | 260 | 0.0 | 0.0 | 0.00 | 0.00 | 0.00 | 24 | 1021.2 |
| 20260509052504 | 69 | 260 | 0.0 | 0.0 | 0.00 | 0.00 | 0.00 | 24 | 1021.2 |
| 20260509052005 | 69 | 260 | 0.0 | 0.0 | 0.00 | 0.00 | 0.00 | 23 | 1021.2 |
| 20260509051504 | 69 | 260 | 0.0 | 0.0 | 0.00 | 0.00 | 0.00 | 23 | 1021.1 |
| 20260509051003 | 69 | 260 | 0.0 | 0.0 | 0.00 | 0.00 | 0.00 | 22 | 1021.0 |
| 20260509050504 | 70 | 261 | 0.0 | 0.0 | 0.00 | 0.00 | 0.00 | 23 | 1021.0 |
| 20260509045503 | 71 | 261 | 0.0 | 0.0 | 0.00 | 0.00 | 0.00 | 23 | 1021.3 |
| 20260509045004 | 71 | 261 | 0.0 | 0.0 | 0.00 | 0.00 | 0.00 | 25 | 1021.2 |
| 20260509044504 | 72 | 261 | 0.0 | 0.0 | 0.00 | 0.00 | 0.00 | 26 | 1021.2 |
| 20260509043503 | 72 | 261 | 0.0 | 0.0 | 0.00 | 0.00 | 0.00 | 24 | 1021.1 |
| 20260509043004 | 73 | 261 | 0.0 | 0.0 | 0.00 | 0.00 | 0.00 | 24 | 1021.0 |
| 20260509042504 | 73 | 261 | 0.0 | 0.0 | 0.00 | 0.00 | 0.00 | 24 | 1020.8 |
| 20260509042004 | 73 | 261 | 0.0 | 0.0 | 0.00 | 0.00 | 0.00 | 24 | 1020.8 |
| 20260509041505 | 74 | 262 | 0.0 | 0.0 | 0.00 | 0.00 | 0.00 | 24 | 1020.7 |
| 20260509041004 | 74 | 263 | 0.0 | 0.0 | 0.00 | 0.00 | 0.00 | 24 | 1020.8 |
| 20260509040503 | 75 | 263 | 0.0 | 0.0 | 0.00 | 0.00 | 0.00 | 25 | 1020.7 |
| 20260509035504 | 77 | 288 | 0.0 | 0.0 | 0.00 | 0.00 | 0.00 | 24 | 1020.7 |
| 20260509035003 | 77 | 11 | 0.0 | 0.0 | 0.00 | 0.00 | 0.00 | 24 | 1020.7 |
| 20260509034504 | 77 | 13 | 0.0 | 0.0 | 0.00 | 0.00 | 0.00 | 25 | 1020.6 |
| 20260509034004 | 77 | 325 | 0.0 | 0.0 | 0.00 | 0.00 | 0.00 | 25 | 1020.6 |
| 20260509033503 | 78 | 300 | 0.0 | 0.0 | 0.00 | 0.00 | 0.00 | 25 | 1020.4 |
| 20260509033004 | 78 | 275 | 0.0 | 0.0 | 0.00 | 0.00 | 0.00 | 25 | 1020.3 |
| 20260509032504 | 78 | 250 | 0.0 | 0.0 | 0.00 | 0.00 | 0.00 | 25 | 1020.3 |
| 20260509032004 | 79 | 240 | 0.0 | 0.0 | 0.00 | 0.00 | 0.00 | 26 | 1020.3 |
| 20260509030505 | 79 | 214 | 0.0 | 0.0 | 0.00 | 0.00 | 0.00 | 26 | 1020.1 |
| 20260509025503 | 80 | 222 | 0.0 | 0.0 | 0.00 | 0.00 | 0.00 | 25 | 1019.9 |
| 20260509025003 | 80 | 227 | 0.0 | 0.0 | 0.00 | 0.00 | 0.00 | 25 | 1019.9 |
| 20260509024503 | 81 | 240 | 0.0 | 0.0 | 0.00 | 0.00 | 0.00 | 24 | 1019.8 |
| 20260509024004 | 81 | 224 | 0.0 | 6.0 | 0.00 | 0.00 | 0.00 | 24 | 1019.8 |
| 20260509023504 | 81 | 223 | 0.0 | 6.0 | 0.00 | 0.00 | 0.00 | 24 | 1019.8 |